This is the latest recevied weather packets stored in our database for station/object NO9B. If no packets are shown the sender has not sent any weather packets the latest 1 day(s).
| Time | Temp. | Humidity | Pressure | Rain* | Wind** | Luminosity | Snow |
|---|---|---|---|---|---|---|---|
| 1777983947 | 7.78° C | 44% | 1008.8 hPa | 0 mm | 1.34 m/s, 274° | 51 W/m² | - |
| 1777983644 | 7.78° C | 49% | 1008.9 hPa | 0 mm | 1.34 m/s, 213° | 50 W/m² | - |
| 1777983341 | 7.22° C | 48% | 1009.3 hPa | 0 mm | 1.34 m/s, 255° | 25 W/m² | - |
| 1777983038 | 7.22° C | 49% | 1009.6 hPa | 0 mm | 0.89 m/s, 273° | 27 W/m² | - |
| 1777982734 | 7.22° C | 51% | 1009.8 hPa | 0 mm | 0.89 m/s, 247° | 21 W/m² | - |
| 1777982430 | 7.22° C | 48% | 1008.9 hPa | 0 mm | 0.89 m/s, 244° | 26 W/m² | - |
| 1777982124 | 7.22° C | 50% | 1008.4 hPa | 0 mm | 0.45 m/s, 276° | 24 W/m² | - |
| 1777981822 | 7.22° C | 48% | 1007.9 hPa | 0 mm | 0.89 m/s, 266° | 24 W/m² | - |
| 1777981519 | 6.67° C | 49% | 1008.1 hPa | 0 mm | 0.89 m/s, 247° | 23 W/m² | - |
| 1777981215 | 6.67° C | 53% | 1007.6 hPa | 0 mm | 0 m/s | 20 W/m² | - |
| 1777980912 | 6.67° C | 52% | 1007.5 hPa | 0 mm | 0 m/s | 15 W/m² | - |
| 1777980609 | 6.67° C | 51% | 1007.5 hPa | 0 mm | 0.45 m/s, 310° | 15 W/m² | - |
| 1777980305 | 6.67° C | 49% | 1007.6 hPa | 0 mm | 0 m/s | 14 W/m² | - |
| 1777980003 | 7.22° C | 48% | 1007.7 hPa | 0 mm | 0 m/s | 10 W/m² | - |
| 1777979702 | 7.22° C | 48% | 1008.1 hPa | 0 mm | 0.45 m/s, 237° | 9 W/m² | - |
| 1777979398 | 7.22° C | 47% | 1008.1 hPa | 0 mm | 0.89 m/s, 218° | 8 W/m² | - |
| 1777979095 | 7.22° C | 46% | 1008.2 hPa | 0 mm | 0.45 m/s, 274° | 6 W/m² | - |
| 1777978792 | 7.22° C | 47% | 1008.1 hPa | 0 mm | 0.45 m/s, 257° | 4 W/m² | - |
| 1777978489 | 7.22° C | 47% | 1008.2 hPa | 0 mm | 0.89 m/s, 272° | 3 W/m² | - |
| 1777978184 | 7.22° C | 47% | 1007.7 hPa | 0 mm | 0.89 m/s, 201° | 2 W/m² | - |
| 1777977882 | 7.22° C | 46% | 1007.6 hPa | 0 mm | 0 m/s | 1 W/m² | - |
| 1777977578 | 7.78° C | 47% | 1007.6 hPa | 0 mm | 0.89 m/s, 248° | 1 W/m² | - |
| 1777977276 | 7.78° C | 45% | 1007.5 hPa | 0 mm | 0.45 m/s, 247° | 0 W/m² | - |
| 1777976973 | 7.78° C | 44% | 1007.5 hPa | 0 mm | 1.34 m/s, 328° | 0 W/m² | - |
| 1777976670 | 7.78° C | 44% | 1007.2 hPa | 0 mm | 0.45 m/s, 343° | 0 W/m² | - |
* Rain latest hour (hover to see other rain measurements)
** Current wind speed in m/s (hover to see current wind gust speed)